Change the Weather History Date:

Thursday, January 3, 2013

  Actual Average Record
Temperature  
Mean Temperature 26 °F -  
Max Temperature 30 °F 28 °F 51 °F (1950)
Min Temperature 21 °F 13 °F -13 °F (1979)
Degree Days  
Heating Degree Days 40    
Moisture  
Dew Point 18 °F    
Average Humidity 73    
Maximum Humidity 81    
Minimum Humidity 51    
Precipitation  
Precipitation 0.00 in - - ()
Sea Level Pressure  
Sea Level Pressure 30.16 in    
Wind  
Wind Speed 11 mph (West)    
Max Wind Speed 15 mph    
Max Gust Speed 23 mph    
Visibility 7 miles    
Events      
Averages and records for this station are not official NWS values.
T = Trace of Precipitation, MM = Missing Value Source: NWS Daily Summary

Daily Weather History Graph

Daily Weather History Graph

Search for Another Location

Airport or City:

Trip Planner

Search our weather history database for the weather conditions in past years. The results will help you decide how hot, cold, wet, or windy it might be!

Date:

Astronomy

Jan. 03, 2013 Rise Set
Actual Time 7:21 AM CST 4:30 PM CST
Civil Twilight 6:49 AM CST 5:02 PM CST
Nautical Twilight 6:14 AM CST 5:37 PM CST
Astronomical Twilight 5:40 AM CST 6:11 PM CST
Moon 11:15 PM CST (1/3) 10:24 AM CST (1/3)
Length of Visible Light 10h 12m
Length of Day
9h 08m
Waning Gibbous, 65% of the Moon is Illuminated
Jan 3
Waning Gibbous
Jan 4
Last Quarter
Jan 11
New
Jan 18
First Quarter
Jan 26
Full

Hourly Weather History & Observations

Time (CST) Temp. Windchill Dew Point Humidity Pressure Visibility Wind Dir Wind Speed Gust Speed Precip Events Conditions
12:53 AM 24.1 °F 13.1 °F 17.1 °F 75% 30.08 in 9.0 mi WSW 11.5 mph 18.4 mph N/A   Overcast
2:53 AM 24.1 °F 16.0 °F 19.0 °F 81% 30.09 in 9.0 mi West 6.9 mph - N/A   Overcast
3:00 AM 24.8 °F 16.9 °F 19.4 °F 80% 30.06 in 9.0 mi WSW 6.9 mph - N/A   Overcast
3:53 AM 24.1 °F 14.4 °F 19.0 °F 81% 30.08 in 7.0 mi West 9.2 mph - N/A   Overcast
4:25 AM 24.8 °F 14.6 °F 17.6 °F 74% 30.05 in 6.0 mi West 10.4 mph - N/A   Haze
4:53 AM 24.1 °F 15.2 °F 18.0 °F 77% 30.09 in 7.0 mi West 8.1 mph 17.3 mph N/A   Overcast
5:53 AM 24.1 °F 15.2 °F 18.0 °F 77% 30.10 in 6.0 mi West 8.1 mph - N/A   Haze
6:21 AM 24.8 °F 13.4 °F 19.4 °F 80% 30.08 in 6.0 mi West 12.7 mph 17.3 mph N/A   Haze
6:53 AM 24.1 °F 12.5 °F 19.0 °F 81% 30.12 in 6.0 mi West 12.7 mph 18.4 mph N/A   Haze
7:51 AM 24.8 °F 14.0 °F 19.4 °F 80% 30.10 in 4.0 mi West 11.5 mph - N/A   Haze
7:53 AM 25.0 °F 15.5 °F 19.9 °F 81% 30.13 in 4.0 mi West 9.2 mph 17.3 mph N/A   Haze
8:53 AM 25.0 °F 16.3 °F 19.9 °F 81% 30.15 in 5.0 mi West 8.1 mph - N/A   Haze
9:53 AM 25.0 °F 14.2 °F 19.0 °F 78% 30.16 in 6.0 mi West 11.5 mph 19.6 mph N/A   Haze
10:53 AM 25.0 °F 12.6 °F 18.0 °F 75% 30.17 in 6.0 mi West 15.0 mph 23.0 mph N/A   Haze
11:53 AM 26.1 °F 16.2 °F 18.0 °F 71% 30.17 in 6.0 mi WNW 10.4 mph 23.0 mph N/A   Haze
12:53 PM 26.1 °F 15.6 °F 18.0 °F 71% 30.16 in 6.0 mi WNW 11.5 mph 20.7 mph N/A   Haze
1:53 PM 26.1 °F 14.5 °F 18.0 °F 71% 30.17 in 6.0 mi West 13.8 mph 19.6 mph N/A   Haze
2:53 PM 26.1 °F 15.0 °F 18.0 °F 71% 30.19 in 6.0 mi West 12.7 mph 19.6 mph N/A   Haze
3:53 PM 26.1 °F 15.0 °F 18.0 °F 71% 30.21 in 6.0 mi West 12.7 mph - N/A   Haze
4:53 PM 26.1 °F 15.6 °F 18.0 °F 71% 30.23 in 8.0 mi West 11.5 mph - N/A   Overcast
5:53 PM 25.0 °F 14.8 °F 18.0 °F 75% 30.24 in 7.0 mi West 10.4 mph 17.3 mph N/A   Mostly Cloudy
6:53 PM 24.1 °F 13.1 °F 18.0 °F 77% 30.25 in 8.0 mi West 11.5 mph - N/A   Overcast
7:28 PM 23.0 °F 11.1 °F 17.6 °F 80% 30.21 in 8.0 mi WSW 12.7 mph - N/A   Scattered Clouds
7:53 PM 21.0 °F 8.6 °F 16.0 °F 81% 30.25 in 9.0 mi WSW 12.7 mph 18.4 mph N/A   Clear
8:53 PM 30.0 °F 20.5 °F 14.0 °F 51% 30.24 in 9.0 mi WSW 11.5 mph 19.6 mph N/A   Clear
9:53 PM 28.0 °F 17.0 °F 12.9 °F 53% 30.23 in 9.0 mi West 13.8 mph 23.0 mph N/A   Clear
10:53 PM 27.0 °F 17.3 °F 12.0 °F 53% 30.23 in 10.0 mi West 10.4 mph 21.9 mph N/A   Clear
11:53 PM 26.1 °F 15.6 °F 10.9 °F 53% 30.21 in 10.0 mi WSW 11.5 mph 18.4 mph N/A   Clear